This is the latest recevied weather packets stored in our database for station/object JA0ZJX-13. If no packets are shown the sender has not sent any weather packets the latest 10 day(s).
| Time | Temp. | Humidity | Pressure | Rain* | Wind** | Luminosity | Snow |
|---|---|---|---|---|---|---|---|
| 1777986808 | 12.78° C | 68% | 1022.2 hPa | 0 mm | - | 0 W/m² | - |
| 1777986217 | 12.78° C | 67% | 1022.2 hPa | 0 mm | - | 0 W/m² | - |
| 1777985606 | 13.33° C | 67% | 1022.2 hPa | 0 mm | - | 0 W/m² | - |
| 1777985014 | 13.33° C | 67% | 1022.3 hPa | 0 mm | - | 0 W/m² | - |
| 1777984409 | 13.89° C | 67% | 1022.2 hPa | 0 mm | - | 0 W/m² | - |
| 1777983818 | 13.89° C | 67% | 1022.2 hPa | 0 mm | - | 0 W/m² | - |
| 1777983207 | 13.89° C | 67% | 1022 hPa | 0 mm | - | 0 W/m² | - |
| 1777982621 | 13.89° C | 66% | 1021.9 hPa | 0 mm | - | 0 W/m² | - |
| 1777982010 | 14.44° C | 66% | 1021.6 hPa | 0 mm | - | 0 W/m² | - |
| 1777981419 | 14.44° C | 66% | 1021.4 hPa | 0 mm | - | 0 W/m² | - |
| 1777980809 | 15° C | 65% | 1021.1 hPa | 0 mm | - | 0 W/m² | - |
| 1777980222 | 15° C | 65% | 1021 hPa | 0 mm | - | 0 W/m² | - |
| 1777979612 | 15.56° C | 65% | 1020.8 hPa | 0 mm | - | 0 W/m² | - |
| 1777979022 | 15.56° C | 65% | 1020.7 hPa | 0 mm | - | 0 W/m² | - |
| 1777978412 | 16.11° C | 64% | 1020.5 hPa | 0 mm | - | 0 W/m² | - |
| 1777977823 | 16.11° C | 63% | 1020.2 hPa | 0 mm | - | 0 W/m² | - |
| 1777977211 | 16.67° C | 62% | 1019.9 hPa | 0 mm | - | 0 W/m² | - |
| 1777976620 | 16.67° C | 61% | 1019.6 hPa | 0 mm | - | 0 W/m² | - |
| 1777976012 | 17.22° C | 60% | 1019.4 hPa | 0 mm | - | 0 W/m² | - |
| 1777975421 | 17.22° C | 60% | 1019.4 hPa | 0 mm | - | 0 W/m² | - |
| 1777974809 | 17.78° C | 59% | 1019.3 hPa | 0 mm | - | 0 W/m² | - |
| 1777974220 | 18.33° C | 57% | 1019.1 hPa | 0 mm | - | 0 W/m² | - |
| 1777973614 | 18.89° C | 56% | 1018.9 hPa | 0 mm | - | 7 W/m² | - |
| 1777973023 | 19.44° C | 54% | 1018.8 hPa | 0 mm | - | 12 W/m² | - |
| 1777972411 | 20° C | 52% | 1018.7 hPa | 0 mm | - | 19 W/m² | - |
* Rain latest hour (hover to see other rain measurements)
** Current wind speed in m/s (hover to see current wind gust speed)